Regional Weather Roundup
Issued by NWS

Home | Current Version | Previous Version | Text Only | Print | Product List | Glossary On
Versions: 1 2 3 4 5 6 7 8 9 10 11 12 13 14 15 16 17 18 19 20 21 22 23 24 25 26 27 28 29 30 31 32 33 34 35 36 37 38 39 40 41 42 43 44 45 46 47 48 49 50
000
ASCA44 KEWX 052111
RWRMX

LATIN AMERICA AND CARIBBEAN REGIONAL WEATHER ROUNDUP
NATIONAL WEATHER SERVICE AUSTIN/SAN ANTONIO TX
400 PM CDT THU MAY 05 2016

NOTE: "FAIR" INDICATED FEW OR NO CLOUDS BELOW 12,000 FEET WITH NO
SIGNIFICANT WEATHER AND/OR OBSTRUCTIONS TO VISIBILITY.

BAJA CALIFORNIA

CITY           SKY/WX    TMP DP  RH WIND       PRES   REMARKS
LORETO         PTSUNNY   84  63  48 SE8       29.83F
LA PAZ         PTSUNNY   86  50  28 S8        29.89F
MEXICALI       SUNNY     84  34  16 N9        29.74F
S.J. DEL CABO  PTSUNNY   86  45  23 E16       29.88F
TIJUANA        CLOUDY    66  45  45 SW12      29.96S

NORTHWESTERN MEXICO

CITY           SKY/WX    TMP DP  RH WIND       PRES   REMARKS
CULIACAN       CLOUDY    95  68  41 S14       29.88F HX  99
DURANGO        PTSUNNY   84  18   8 N6        30.17F
GUAYMAS        MOSUNNY   88  63  42 S8        29.82F
HERMOSILLO     SUNNY     97  37  12 S7        29.86F HX  92
CD. JUAREZ     MOSUNNY   90  37  15 E23       29.97F
LOS MOCHIS     CLOUDY    79  61  53 SW9       29.89F
OBREGON        PTSUNNY   91  46  21 SW10      29.84F

NORTHEASTERN MEXICO

CITY           SKY/WX    TMP DP  RH WIND       PRES   REMARKS
CHIHUAHUA      PTSUNNY   84  41  21 SE7G21    30.07F
MATAMOROS        N/A    N/A N/A N/A MISG        N/A
MONCLOVA       MOSUNNY   88  43  20 N9        29.98F
MONTERREY      PTSUNNY   90  37  15 SE7       29.98F
NUEVO LAREDO   SUNNY     93  46  20 NE9       29.96F
PIEDRAS NEGRAS SUNNY     88  54  31 SE5       30.01F
REYNOSA        MOSUNNY   91  41  17 E6        29.96F
SALTILLO       PTSUNNY   79  57  47 NE9       30.20F
TORREON        PTSUNNY   90  52  27 E5        30.04F
CD. VICTORIA   PTSUNNY   86  52  30 SE9       29.99F

WESTERN MEXICO

CITY           SKY/WX    TMP DP  RH WIND       PRES   REMARKS
AGUASCALIENTES MOSUNNY   88  23   9 N6        30.18F
COLIMA         PTSUNNY   84  70  61 W17       29.92F
DEL BAJIO      PTSUNNY   90  30  12 NW12      30.19F
GUADALAJARA    SUNNY     91  21   8 W14       30.09F
MANZANILLO     SUNNY     82  75  78 W12       29.84F
MAZATLAN       MOSUNNY   88  59  37 W12       29.87F
P. VALLARTA    MOSUNNY   82  70  65 SW9       29.85F
URUAPAN          N/A    N/A N/A N/A MISG        N/A
ZACATECAS      MOSUNNY   82  28  14 N17       30.25F

CENTRAL MEXICO

CITY           SKY/WX    TMP DP  RH WIND       PRES   REMARKS
CUERNAVACA     PTSUNNY   86  52  30 CALM      30.01F
MEXICO CITY    MOSUNNY   82  41  23 NW8       30.24F
MORELIA        MOSUNNY   86  43  22 NW5       30.16F
POZA RICA      CLOUDY    84  66  54 SE9       30.01F
PUEBLA         MOSUNNY   79  52  38 SW10      30.24F
QUERETARO      PTSUNNY   84  39  20 SW6G21    30.21F
S. LUIS POTOSI PTSUNNY   81  43  26 NE14      30.19F
TAMPICO        MOSUNNY   84  46  26 E8        29.99F
TOLUCA         PTSUNNY   84  43  23 NW12      30.32F

SOUTHERN MEXICO

CITY           SKY/WX    TMP DP  RH WIND       PRES   REMARKS
ACAPULCO       SUNNY     86  79  79 W9        29.81F HX  99
B. DE HUATULCO MOSUNNY   88  75  66 W13       29.85F HX  97
OAXACA         CLOUDY    84  52  32 CALM      30.11F
P. ESCONDIDO   MOSUNNY   86  79  79 S6        29.89F HX  99
VERACRUZ       CLOUDY    81  68  65 NE12      30.01F
ZIHUATANEJO    SUNNY     88  75  66 W5        29.84F HX  97

YUCATAN PENINSULA

CITY           SKY/WX    TMP DP  RH WIND       PRES   REMARKS
CAMPECHE       SUNNY     81  64  57 N12G23    29.91S
CANCUN         MOSUNNY   82  63  51 N8        29.88F
CHETUMAL       PTSUNNY   90  70  51 N12       29.87F HX  95
CD. DEL CARMEN PTSUNNY   82  64  54 N12       29.96F
COZUMEL        SUNNY     79  66  65 NE16      29.88F
MERIDA         SUNNY     86  55  35 NW7G29    29.93F
MINATITLAN     PTSUNNY   81  72  74 N12G23    29.95F
TAPACHULA      CLOUDY    90  79  70 S9        29.74F HX 105
TUX. GUTIERREZ SUNNY     88  64  45 NW20      29.89F
VILLAHERMOSA   MOSUNNY   86  68  54 NW12      29.97F

CENTRAL AMERICA

CITY           SKY/WX    TMP DP  RH WIND       PRES   REMARKS
BELIZE CITY    MOSUNNY   90  77  66 NW6       29.87F HX 102
MANAGUA        MOCLDY    91  77  62 N12       29.71F HX 105

CARIBBEAN

CITY           SKY/WX    TMP DP  RH WIND       PRES   REMARKS
ARUBA          MOSUNNY   88  77  70 E23       29.74S HX 100
CURACAO        MOSUNNY   86  77  74 E15       29.77S HX  97
KINGSTON       MOSUNNY   86  75  70 S12       29.80S HX  95
NASSAU         MOSUNNY   82  63  51 W6        29.79S
SAN JUAN       MOSUNNY   88  72  58 SE12      29.88R HX  94
SANTO DOMINGO  PTSUNNY   82  75  78 S12       29.83S
ST. CROIX      MOSUNNY   84  73  70 E14       29.91S HX  91
ST. KITTS      MOSUNNY   82  75  78 E13       29.92S
ST. MAARTEN    MOSUNNY   82  73  74 E12       29.92S
ST. THOMAS     MOSUNNY   84  75  74 SE14G24   29.90  HX  92

$$





USA.gov is the U.S. government's official web portal to all federal, state and local government web resources and services.